Location: downtown San Diego
(32.7310°N, 117.1990°W)
Time: 04:28:39
(UTC-07:00)

Cosmos 1844 Rocket - Visible Passes

Search period start: 14 October 2019 00:00
Search period end: 24 October 2019 00:00
Orbit: 824 x 845 km, 71.0° (Epoch: 14 October)

Date Brightness Start Highest point End Pass type
(mag) Time Alt. Az. Time Alt. Az. Time Alt. Az.
14 Oct 5.6 03:24:08 10° NE 03:25:35 11° NE 03:27:03 10° ENE visible
14 Oct 2.5 05:04:34 10° NNW 05:10:11 87° WSW 05:15:44 10° SSE visible
14 Oct 5.1 19:51:22 10° WSW 19:55:33 21° WNW 19:59:44 10° NNW visible
15 Oct 2.6 04:50:15 32° NNW 04:52:58 85° ENE 04:58:32 10° SSE visible
15 Oct 5.0 19:33:53 10° WSW 19:38:17 23° WNW 19:42:42 10° N visible
16 Oct 2.8 04:36:14 71° ESE 04:36:14 71° ESE 04:41:19 10° SSE visible
16 Oct 4.4 06:18:26 10° W 06:18:51 10° W 06:19:16 10° W visible
16 Oct 4.9 19:16:25 10° WSW 19:21:01 25° WNW 19:25:38 10° N visible
17 Oct 4.2 04:21:45 26° SSE 04:21:45 26° SSE 04:24:04 10° SSE visible
17 Oct 4.8 18:58:59 10° WSW 19:03:47 28° WNW 19:08:34 10° N visible
18 Oct 4.6 18:41:36 10° SW 18:46:31 31° WNW 18:51:29 10° N visible
